User: anonymous   Login
Location: Tyler Bend Campground
(35.9875°N, 92.7606°W)
Time: 01:37:42
(UTC-05:00)
Language:

CZ-2C R/B - Orbit

View from above orbital plane
View from above orbital plane
View from above satellite
View from above satellite

Ground track
Ground track

The orbit data is extracted from the following two-line orbital elements,

1 36089U 09061B   15214.57218332  .00000132  00000-0  44505-4 0  9994
2 36089 098.0694 235.6687 0082072 354.8123 115.7422 14.49473258302527
Epoch (UTC): 02 August 2015 13:43:56
Eccentricity: 0.0082072
inclination: 98.0694°
perigee height: 669 km
apogee height: 785 km
right ascension of ascending node: 235.6687°
argument of perigee: 354.8123°
revolutions per day: 14.49473258
mean anomaly at epoch: 115.7422°
orbit number at epoch: 30252

The dashed part of the orbit path shows where the satellite is in the earth's shadow,  

DLR